This is the latest recevied weather packets stored in our database for station/object KE2HEH. If no packets are shown the sender has not sent any weather packets the latest 1 day(s).
| Time | Temp. | Humidity | Pressure | Rain* | Wind** | Luminosity | Snow |
|---|---|---|---|---|---|---|---|
| 1778037585 | 13.33° C | 90% | 1011.8 hPa | 0 mm | 14.31 m/s, 208° | 0 W/m² | - |
| 1778037283 | 13.33° C | 90% | 1011.8 hPa | 0 mm | 11.18 m/s, 224° | 0 W/m² | - |
| 1778036980 | 13.33° C | 90% | 1011.8 hPa | 0 mm | 10.73 m/s, 205° | 0 W/m² | - |
| 1778036678 | 13.33° C | 90% | 1011.9 hPa | 0 mm | 11.18 m/s, 178° | 0 W/m² | - |
| 1778036374 | 13.33° C | 90% | 1011.9 hPa | 0 mm | 13.41 m/s, 193° | 0 W/m² | - |
| 1778036071 | 13.33° C | 90% | 1011.9 hPa | 0 mm | 10.73 m/s, 204° | 0 W/m² | - |
| 1778035768 | 13.33° C | 90% | 1012.1 hPa | 0 mm | 13.41 m/s, 203° | 0 W/m² | - |
| 1778035465 | 13.33° C | 90% | 1011.9 hPa | 0 mm | 12.07 m/s, 196° | 0 W/m² | - |
| 1778035161 | 13.33° C | 90% | 1011.8 hPa | 0 mm | 11.18 m/s, 227° | 0 W/m² | - |
| 1778034858 | 13.33° C | 89% | 1011.7 hPa | 0 mm | 12.96 m/s, 199° | 0 W/m² | - |
| 1778034554 | 13.33° C | 89% | 1011.7 hPa | 0 mm | 12.07 m/s, 190° | 0 W/m² | - |
| 1778034252 | 13.89° C | 89% | 1011.8 hPa | 0 mm | 13.41 m/s, 196° | 0 W/m² | - |
| 1778033950 | 13.89° C | 89% | 1011.7 hPa | 0 mm | 13.41 m/s, 185° | 0 W/m² | - |
| 1778033647 | 13.89° C | 89% | 1011.9 hPa | 0 mm | 13.41 m/s, 210° | 0 W/m² | - |
| 1778033343 | 13.89° C | 89% | 1011.9 hPa | 0 mm | 10.28 m/s, 201° | 0 W/m² | - |
| 1778033042 | 13.89° C | 89% | 1011.8 hPa | 0 mm | 11.18 m/s, 207° | 0 W/m² | - |
| 1778032739 | 13.33° C | 89% | 1011.8 hPa | 0 mm | 13.86 m/s, 191° | 0 W/m² | - |
| 1778032436 | 13.33° C | 89% | 1011.6 hPa | 0 mm | 12.96 m/s, 231° | 0 W/m² | - |
| 1778032133 | 13.33° C | 88% | 1011.8 hPa | 0 mm | 11.18 m/s, 193° | 0 W/m² | - |
| 1778031830 | 13.33° C | 88% | 1011.5 hPa | 0 mm | 10.28 m/s, 193° | 0 W/m² | - |
| 1778031526 | 13.33° C | 88% | 1011.6 hPa | 0 mm | 11.18 m/s, 205° | 0 W/m² | - |
| 1778031224 | 13.33° C | 88% | 1011.6 hPa | 0 mm | 9.83 m/s, 194° | 0 W/m² | - |
| 1778030920 | 13.33° C | 88% | 1011.7 hPa | 0 mm | 10.28 m/s, 203° | 0 W/m² | - |
| 1778030617 | 13.33° C | 88% | 1011.8 hPa | 0 mm | 10.28 m/s, 242° | 0 W/m² | - |
| 1778030314 | 13.33° C | 88% | 1011.6 hPa | 0 mm | 8.94 m/s, 233° | 0 W/m² | - |
* Rain latest hour (hover to see other rain measurements)
** Current wind speed in m/s (hover to see current wind gust speed)